Regional Weather Roundup
Issued by NWS

Home | Current Version | Previous Version | Graphics & Text | Print | Product List | Glossary On
Versions: 1 2 3 4 5 6 7 8 9 10 11 12 13 14 15 16 17 18 19 20 21 22 23 24 25 26 27 28 29 30 31 32 33 34 35 36 37 38 39 40 41 42 43 44 45 46 47 48 49 50
000
ASUS43 KMPX 270501
RWRMN
WEATHER ROUNDUP FOR MINNESOTA
NATIONAL WEATHER SERVICE TWIN CITIES/CHANHASSEN MN
1200 AM CDT FRI MAR 27 2015


NOTE: "FAIR" INDICATES FEW OR NO CLOUDS BELOW 12,000 FEET WITH NO
SIGNIFICANT WEATHER AND/OR OBSTRUCTIONS TO VISIBILITY. N/A MEANS
CURRENT SKY AND/OR WEATHER CONDITIONS ARE NOT AVAILABLE.

MNZ060>063-068>070-270600-
   Twin Cities Metro

CITY           SKY/WX    TMP DP  RH WIND       PRES   REMARKS
TWIN CITIES    CLEAR     26   7  44 N8        30.22R WCI  18
ST PAUL        CLEAR     25   7  46 N6        30.23R WCI  18
CRYSTAL        CLEAR     26   9  48 N6        30.21R WCI  19
BLAINE         CLEAR     25   9  50 N6        30.22R WCI  18
LAKEVILLE      CLEAR     23   9  54 N3        30.21R
EDEN PRAIRIE   CLEAR     26   9  48 N6        30.20R WCI  19
SOUTH ST PAUL  CLEAR     27   8  43 N3        30.22R
LAKE ELMO      FAIR      27   9  46 N5        30.22R WCI  21
$$
MNZ001>005-007-008-013>017-022>024-027-028-270600-
   Northwest Minnesota

CITY           SKY/WX    TMP DP  RH WIND       PRES   REMARKS
BEMIDJI        CLEAR     11   1  64 CALM      30.25S
HALLOCK        CLEAR     18   9  68 NE3       30.31S
ROSEAU         FAIR      19  12  73 N3        30.29R
WARROAD        FAIR      18  10  73 NW6       30.29R WCI   9
THIEF RVR FALL CLEAR     19   9  63 N6        30.28F WCI  11
CROOKSTON      CLEAR     19  12  73 N3        30.31S
FOSSTON        CLEAR     14   9  79 CALM      30.27S
DETROIT LAKES  CLEAR     19  14  79 N6        30.27R WCI  11
MOORHEAD       CLEAR     16   9  73 NW5       30.31R WCI   9
PARK RAPIDS    CLEAR     20   0  41 N5        30.23S WCI  13
MAHNOMEN       FAIR      18  11  74 N6        30.26S WCI  10
$$
MNZ006-009>011-018-025>026-270600-
   North Central Minnesota

CITY           SKY/WX    TMP DP  RH WIND       PRES   REMARKS
BAUDETTE       CLEAR     16   3  56 N6        30.26S WCI   7
FLAG ISLAND    CLEAR     16   7  67 CALM      30.27S
INTL FALLS     CLEAR     14   5  67 NE3       30.26R
WASKISH        FAIR      12   7  79 CALM      30.26R
BIG FORK       CLEAR     12   3  67 CALM      30.24S
LONGVILLE      CLEAR     18   1  49 CALM      30.24S
GRAND RAPIDS   CLEAR     18   0  45 N6        30.22S WCI   9
ORR            CLEAR     10   0  61 CALM      30.22R
COOK           CLEAR     12   1  62 CALM      30.24R
WALKER         FAIR      17  -2  42 CALM      30.24S
$$
MNZ012-019>021-037-270600-
   Northeast Minnesota

CITY           SKY/WX    TMP DP  RH WIND       PRES   REMARKS
DULUTH         CLEAR     18   1  47 N8        30.20R WCI   8
ELY            CLEAR     12   1  62 CALM      30.22R
HIBBING        CLEAR     16  -2  45 NE5       30.22R WCI   9
EVELETH        CLEAR     18   0  45 N6        30.23R WCI   9
DULUTH HARBOR  CLEAR     25   7  46 N17       30.26R WCI  11
TWO HARBORS    CLEAR     19   5  53 NE5       30.21R WCI  13
SILVER BAY     CLEAR     16   3  57 CALM      30.22R
GRAND MARAIS     N/A     17   3  54 CALM      30.25R
G MARAIS ARPRT CLEAR      9   0  66 NW12      30.14S WCI  -6
$$
MNZ029>031-032-039>041-046>048-054>057-064-270600-
   West Central Minnesota

CITY           SKY/WX    TMP DP  RH WIND       PRES   REMARKS
FERGUS FALLS   CLEAR     18   9  68 N5        30.30S WCI  11
WHEATON        CLEAR     19  10  68 NW7       30.31R WCI  10
MORRIS         FAIR      21  14  73 N8        30.26R WCI  12
ALEXANDRIA     CLEAR     21  11  65 N5        30.24R WCI  15
ELBOW LAKE     FAIR      20  12  72 N6        30.26S WCI  12
WADENA         CLEAR     18  10  73 N5        30.24R WCI  11
GLENWOOD       CLEAR     19  12  73 N7        30.24S WCI  10
APPLETON       CLEAR     25  16  68 N10       30.27R WCI  15
BENSON         CLEAR     19  12  73 N6        30.26R WCI  11
ORTONVILLE     CLEAR     21  14  73 N8        30.28R WCI  12
MADISON        CLEAR     25  16  68 N8        30.28R WCI  16
WILLMAR        FAIR      23  12  63 N8        30.25R WCI  14
$$
MNZ033>034-036-042>043-049>051-058-059-270600-
   Central Minnesota

CITY           SKY/WX    TMP DP  RH WIND       PRES   REMARKS
ST CLOUD       CLEAR     23   7  50 N9        30.23R WCI  13
SAUK CENTRE    FAIR      20   7  56 N5        30.24S WCI  14
PAYNESVILLE    CLEAR     18   8  64 W3        30.24R
AITKIN         CLEAR     21   1  42 N6        30.22R WCI  14
PINE RIVER     CLEAR     18   1  49 N3        30.27R
BRAINERD       CLEAR     21   2  43 N6        30.24R WCI  13
STAPLES        CLEAR     16   1  53 N5        30.24S WCI   9
LONG PRAIRIE   FAIR      21   3  45 N5        30.24R WCI  15
LITTLE FALLS   CLEAR     23  -2  33 N5        30.24R WCI  17
LITCHFIELD     CLEAR     21   9  58 N6        30.23S WCI  14
MAPLE LAKE     CLEAR     24  11  58 N8        30.23R WCI  15
$$
MNZ037-044-045-052-053-270600-
   East Central Minnesota

CITY           SKY/WX    TMP DP  RH WIND       PRES   REMARKS
PRINCETON      CLEAR     25   9  50 NW7       30.22R WCI  17
MORA           CLEAR     25   1  36 N3        30.24R
CAMBRIDGE      CLEAR     27  10  50 CALM      30.21R
RUSH CITY      CLEAR     22   5  46 N5        30.23R WCI  16
MOOSE LAKE     CLEAR     21   1  42 CALM      30.22R
HINCKLEY       FAIR      23   3  42 N7        30.23R WCI  15
CLOQUET        CLEAR     18   0  45 N5        30.22R WCI  11
MCGREGOR       CLEAR     19   5  53 CALM      30.24R
$$
MNZ071>073-080-081-089-090-097-098-270600-
   Southwest Minnesota

CITY           SKY/WX    TMP DP  RH WIND       PRES   REMARKS
MONTEVIDEO     CLEAR     25  16  68 NE10      30.27R WCI  15
GRANITE FALLS  CLEAR     24  15  68 NW8       30.28R WCI  15
CANBY          CLEAR     21  15  78 NW6       30.28R WCI  14
MARSHALL       CLEAR     21  10  63 N10       30.26R WCI  10
REDWOOD FALLS  CLEAR     26  15  63 N9        30.24R WCI  17
OLIVIA         CLEAR     23  16  74 N8        30.23R WCI  14
PIPESTONE      CLEAR     23  14  68 N6        30.23R WCI  16
WINDOM         CLEAR     23  16  74 NW12      30.21S WCI  12
WORTHINGTON    CLEAR     19  12  73 NW8       30.22S WCI   9
JACKSON        CLEAR     23  18  80 NW9       30.21R WCI  13
TRACY          CLEAR     24  17  75 NW7       30.24R WCI  15
SLAYTON        CLEAR     21  15  79 CALM      30.23R
$$
MNZ065>067-074>077-082>085-091>093-270600-
   South Central Minnesota

CITY           SKY/WX    TMP DP  RH WIND       PRES   REMARKS
MANKATO        CLEAR     23  12  63 N9        30.20S WCI  13
NEW ULM        FAIR      25  16  68 N8        30.22R WCI  16
ST JAMES       CLEAR     27  19  74 NW12      30.22S WCI  16
FAIRMONT       FAIR      25  16  68 NW8       30.19S WCI  16
GLENCOE        CLEAR     23  14  68 N5        30.22R WCI  16
FARIBAULT      CLEAR     21  12  68 NW5       30.20R WCI  15
OWATONNA       CLEAR     21  16  79 NW3       30.18S
ALBERT LEA     FAIR      25  18  74 NW6       30.18R WCI  18
$$
MNZ078>079-086>088-094>096-270600-
   Southeast Minnesota

CITY           SKY/WX    TMP DP  RH WIND       PRES   REMARKS
ROCHESTER      CLEAR     22  11  62 N9        30.16R WCI  12
RED WING       CLEAR     27   7  43 NE5       30.20R WCI  21
STANTON        CLEAR     22   9  57 N7        30.19R WCI  14
DODGE CENTER   PTCLDY    21  12  68 N6        30.16S WCI  14
WINONA         CLEAR     30  12  47 N7        30.19R WCI  23
AUSTIN         CLEAR     25  18  74 NW9       30.17R WCI  15
PRESTON        PTCLDY    25  12  58 N8        30.15R WCI  16
$$
ABBREVIATIONS USED IN REMARKS
   TC - TEMPERATURES IN CELSIUS
  WCI - WIND CHILL INDEX
   HX - HEAT INDEX
  VSB - VISIBILITY
$$



USA.gov is the U.S. government's official web portal to all federal, state and local government web resources and services.